Flag for Central African Republic Weather past 2 weeks in Bimbo, Central African Republic

Now
75 °F

Thunderstorms. Overcast.


Feels Like: 74 °F
Forecast: 73 / 92 °F
Wind: 12 mph from Southeast

Location: Bangui Airport

Current Time: Mar 30, 2015 at 1:42:41 AM

Latest Report: Mar 30, 2015 at 12:00 AM


Visibility: N/A

Pressure: 29.89 "Hg

Humidity: 94%

Dew point: 73 °F

Location of BimboLocation

Historic Weather in Bimbo — Graph

°F

Bimbo temperature yesterday

Maximum temperature yesterday: 93 °F (at 2:00 PM)
Minimum temperature yesterday: 75 °F (at 2:00 AM)
Average temperature yesterday: 82 °F

Past Weeks' High & Low Weather Summary

 TemperatureHumidityPressure
High100 °F (Mar 16, 2:00 PM)100% (Mar 15, 2:00 AM)30.01 "Hg (Mar 15, 2:00 AM)
Low68 °F (Mar 28, 6:00 AM)35% (Mar 16, 2:00 PM)29.65 "Hg (Mar 15, 4:00 PM)
Average83 °F76%29.80 "Hg
* Reported Midnight between Mar 14 and Mar 15 — Midnight between Mar 29 and Mar 30, Bimbo, Weather by CustomWeather, © 2015

Note: Actual official high and low records may vary slightly from our data, if they occured in-between our weather recording intervals... More about our weather records

Advertising

Bimbo weather history for previous 24 hours

 ConditionsComfort  
Time TempWeatherWind HumidityBarometerVisibility
12:00 AM
Mon, Mar 30
75 °FThunderstorms. Overcast.12 mph94%29.89 "HgN/A
11:00 PM
Sun, Mar 29
81 °FThunderstorms. Overcast.9 mph79%29.86 "HgN/A
10:00 PM82 °FThunderstorms. Overcast.2 mph74%29.86 "HgN/A
9:00 PM82 °FThunderstorms. Overcast.2 mph74%29.83 "HgN/A
8:00 PM82 °FThunderstorms. Overcast.3 mph74%29.80 "HgN/A
7:00 PM86 °FThunderstorms. Passing clouds.5 mph66%29.77 "HgN/A
6:00 PM88 °FPassing clouds.2 mph59%29.77 "HgN/A
5:00 PM91 °FPartly sunny.7 mph52%29.74 "HgN/A
4:00 PM93 °FBroken clouds.7 mph49%29.74 "HgN/A
3:00 PM93 °FBroken clouds.7 mph53%29.77 "HgN/A
2:00 PM93 °FPartly sunny.3 mph53%29.80 "HgN/A
10:00 AM86 °FPartly sunny.10 mph66%29.95 "HgN/A
9:00 AM82 °FBroken clouds.8 mph79%29.95 "HgN/A
8:00 AM79 °FPartly sunny.3 mph89%29.95 "HgN/A
7:00 AM77 °FPartly sunny.No wind89%29.92 "Hg5 mi
6:00 AM75 °FScattered clouds.No wind94%29.89 "Hg5 mi
5:00 AM75 °FPassing clouds.1 mph94%29.89 "Hg5 mi
4:00 AM75 °FClear.1 mph94%29.89 "Hg10 mi
3:00 AM75 °FClear.2 mph94%29.86 "Hg10 mi
2:00 AM75 °FClear.2 mph94%29.86 "Hg10 mi
1:00 AM77 °FClear.No wind94%29.89 "Hg10 mi
Weather by CustomWeather, © 2015

See weather overviewHow to use our weather pages